FW0696 Weather Reports


time (UTC)temp
C
wind
direction
speed
KPH
gust
KPH
rain 1hr
cm
rain 24hr
cm
rain mn
cm
humidity
%
barometer
mb
20260504081546 3 200 1.6 8.0 0.00 0.03 0.03 94 1033.2
20260504044537 11 307 0.0 0.0 0.00 0.03 0.03 76 1032.0
20260504043041 12 307 0.0 0.0 0.00 0.03 0.03 72 1032.1
20260504041536 12 311 0.0 0.0 0.00 0.03 0.03 71 1032.0
20260504040038 12 32 0.0 3.2 0.00 0.03 0.03 70 1032.0
20260504034534 12 343 0.0 4.8 0.00 0.03 0.03 70 1031.7
20260504033033 12 81 0.0 4.8 0.00 0.03 0.03 69 1031.8
20260504031535 12 28 0.0 1.6 0.00 0.03 0.03 71 1031.6
20260504030031 12 1 0.0 3.2 0.00 0.03 0.03 70 1031.6
20260504024529 13 359 0.0 3.2 0.00 0.03 0.03 68 1031.5
20260504023027 12 280 0.0 3.2 0.00 0.03 0.03 69 1031.6
20260504021524 12 328 0.0 4.8 0.00 0.03 0.03 70 1031.7
20260504020022 12 338 0.0 1.6 0.00 0.03 0.03 72 1031.8
20260504014524 11 4 0.0 3.2 0.00 0.03 0.03 73 1031.9
20260504013015 11 25 0.0 0.0 0.00 0.03 0.03 76 1031.9
20260504011513 11 328 0.0 3.2 0.00 0.03 0.03 75 1032.3
20260504010011 10 293 0.0 4.8 0.00 0.03 0.03 76 1032.4
20260504004517 10 323 0.0 1.6 0.00 0.03 0.03 78 1032.7
20260504003005 10 333 0.0 1.6 0.00 0.03 0.03 78 1033.2
20260504001502 10 328 0.0 0.0 0.00 0.03 0.03 78 1033.6
20260504000002 10 307 1.6 4.8 0.00 0.03 0.03 77 1033.7
20260503234628 10 356 0.0 1.6 0.00 0.03 0.03 80 1034.0
20260503233056 8 69 0.0 0.0 0.00 0.03 0.03 83 1034.1
20260503231553 8 340 0.0 0.0 0.00 0.03 0.03 86 1034.3
20260503230054 7 342 0.0 1.6 0.00 0.03 0.03 88 1034.4
20260503224549 7 9 0.0 1.6 0.00 0.03 0.03 89 1034.5
20260503223046 7 139 0.0 0.0 0.00 0.03 0.03 92 1034.5
20260503221553 6 139 0.0 0.0 0.00 0.03 0.03 95 1034.5
20260503220039 6 139 0.0 0.0 0.00 0.03 0.03 97 1034.5
20260503214535 5 139 0.0 0.0 0.00 0.03 0.03 98 1034.6
20260503213034 3 139 0.0 0.0 0.00 0.03 0.03 98 1034.8
20260503211528 2 139 0.0 1.6 0.00 0.03 0.03 98 1034.7
20260503210026 2 134 0.0 1.6 0.00 0.03 0.03 98 1034.8
20260503204525 1 150 0.0 1.6 0.03 0.03 0.03 98 1034.7
20260503203023 1 164 0.0 3.2 0.03 0.03 0.03 97 1034.7
20260503201522 0 146 0.0 3.2 0.03 0.03 0.03 97 1034.6
20260503200023 0 147 0.0 4.8 0.03 0.03 0.03 97 1034.5
20260503194523 0 148 0.0 3.2 0.00 0.00 0.00 97 1034.5
20260503193019 0 139 0.0 3.2 0.00 0.00 0.00 97 1034.4
20260503191520 0 204 1.6 4.8 0.00 0.00 0.00 96 1034.3
20260503190117 0 163 0.0 4.8 0.00 0.00 0.00 96 1034.3
20260503184517 0 140 0.0 3.2 0.00 0.00 0.00 97 1034.3
20260503183017 1 154 0.0 8.0 0.00 0.00 0.00 97 1034.4
20260503181511 0 194 1.6 6.4 0.00 0.00 0.00 96 1034.3
20260503180010 0 162 1.6 4.8 0.00 0.00 0.00 96 1034.1
20260503174506 0 206 0.0 3.2 0.00 0.00 0.00 96 1034.0
20260503173005 0 158 0.0 4.8 0.00 0.00 0.00 96 1033.9
20260503171502 1 132 0.0 1.6 0.00 0.00 0.00 96 1033.7